Weather History for KFFO - March, 2014

Change the Weather History Date:

Saturday, March 8, 2014

  Actual Average Record
Temperature  
Mean Temperature 41 °F -  
Max Temperature 52 °F 43 °F 69 °F (2002)
Min Temperature 30 °F 24 °F 15 °F (1999)
Degree Days  
Heating Degree Days 24    
Moisture  
Dew Point 33 °F    
Average Humidity 80    
Maximum Humidity 100    
Minimum Humidity 50    
Precipitation  
Precipitation 0.00 in - - ()
Sea Level Pressure  
Sea Level Pressure 30.08 in    
Wind  
Wind Speed 5 mph (NW)    
Max Wind Speed 13 mph    
Max Gust Speed -    
Visibility 6 miles    
Events      
Averages and records for this station are not official NWS values.
T = Trace of Precipitation, MM = Missing Value Source: NWS Daily Summary

Daily Weather History Graph

Daily Weather History Graph

Search for Another Location

Airport or City:

Trip Planner

Search our weather history database for the weather conditions in past years. The results will help you decide how hot, cold, wet, or windy it might be!

Date:

Astronomy

Mar. 08, 2014 Rise Set
Actual Time 6:58 AM EST 6:35 PM EST
Civil Twilight 6:31 AM EST 7:02 PM EST
Nautical Twilight 6:00 AM EST 7:34 PM EST
Astronomical Twilight 5:29 AM EST 8:05 PM EST
Moon 11:39 AM EST (3/8) 1:32 AM EST (3/8)
Length of Visible Light 12h 30m
Length of Day
11h 37m
First Quarter, 51% of the Moon is Illuminated
Mar 8
First Quarter
Mar 16
Full
Mar 23
Last Quarter
Mar 30
New
Apr 7
First Quarter

Hourly Weather History & Observations

Time (EST) Temp. Windchill Dew Point Humidity Pressure Visibility Wind Dir Wind Speed Gust Speed Precip Events Conditions
12:58 AM 32.0 °F - 26.8 °F 81% 29.99 in 10.0 mi Calm Calm - N/A   Clear
1:58 AM 31.3 °F - 26.4 °F 82% 30.01 in 10.0 mi Calm Calm - N/A   Clear
2:58 AM 30.2 °F - 26.1 °F 85% 29.98 in 10.0 mi Calm Calm - N/A   Clear
3:58 AM 31.5 °F - 27.0 °F 83% 29.98 in 10.0 mi SE 2.3 mph - N/A   Mostly Cloudy
4:58 AM 32.5 °F - 27.5 °F 82% 29.98 in 10.0 mi SSE 1.2 mph - N/A   Clear
5:58 AM 33.3 °F 30.2 °F 28.0 °F 81% 30.01 in 10.0 mi South 3.5 mph - N/A   Scattered Clouds
6:58 AM 32.7 °F - 28.4 °F 84% 30.03 in 10.0 mi SSW 2.3 mph - N/A   Mostly Cloudy
7:58 AM 35.1 °F - 30.0 °F 82% 30.05 in 10.0 mi South 2.3 mph - N/A   Clear
8:58 AM 41.5 °F 38.6 °F 34.2 °F 75% 30.06 in 10.0 mi SSW 4.6 mph - N/A   Scattered Clouds
9:58 AM 45.3 °F 42.3 °F 35.1 °F 67% 30.06 in 10.0 mi Variable 5.8 mph - N/A   Mostly Cloudy
10:58 AM 48.6 °F - 36.1 °F 62% 30.07 in 10.0 mi Variable 3.5 mph - N/A   Mostly Cloudy
11:12 AM 48.2 °F - 35.6 °F 62% 30.06 in 6.0 mi NW 6.9 mph - N/A   Haze
11:58 AM 49.3 °F - 36.0 °F 60% 30.04 in 6.0 mi Variable 3.5 mph - N/A   Haze
12:29 PM 51.8 °F - 35.6 °F 54% 30.04 in 6.0 mi Variable 2.3 mph - N/A   Haze
12:58 PM 52.3 °F - 35.6 °F 53% 30.04 in 6.0 mi WSW 6.9 mph - N/A   Haze
1:58 PM 52.9 °F - 34.7 °F 50% 30.01 in 6.0 mi SSW 6.9 mph - N/A   Haze
2:58 PM 50.7 °F - 37.0 °F 59% 30.02 in 7.0 mi NW 9.2 mph - N/A   Overcast
3:58 PM 50.0 °F - 36.9 °F 61% 30.04 in 6.0 mi NW 8.1 mph - N/A   Haze
4:58 PM 46.6 °F - 37.0 °F 69% 30.06 in 5.0 mi NNW 10.4 mph - N/A   Haze
5:28 PM 42.8 °F 37.0 °F 35.6 °F 76% 30.06 in 4.0 mi NNW 10.4 mph - N/A   Haze
5:58 PM 41.4 °F 35.2 °F 35.4 °F 79% 30.08 in 3.0 mi North 10.4 mph - N/A   Haze
6:08 PM 41.0 °F 34.7 °F 35.6 °F 81% 30.08 in 2.5 mi NNW 10.4 mph - N/A   Haze
6:18 PM 41.0 °F 34.7 °F 35.6 °F 81% 30.08 in 1.5 mi NNW 10.4 mph - N/A   Haze
6:29 PM 39.2 °F 31.6 °F 33.8 °F 81% 30.10 in 2.0 mi NNW 12.7 mph - N/A   Haze
6:44 PM 39.2 °F 32.5 °F 33.8 °F 81% 30.10 in 2.0 mi NNW 10.4 mph - N/A   Haze
6:54 PM 37.4 °F 30.3 °F 32.0 °F 81% 30.11 in 2.0 mi NNW 10.4 mph - N/A   Haze
6:58 PM 38.1 °F 30.2 °F 33.3 °F 83% 30.11 in 2.0 mi NNW 12.7 mph - N/A   Overcast
7:58 PM 36.1 °F 29.3 °F 32.2 °F 86% 30.12 in 2.0 mi NNW 9.2 mph - N/A   Overcast
8:38 PM 35.6 °F 27.5 °F 32.0 °F 87% 30.10 in 3.0 mi NNW 11.5 mph - N/A   Overcast
8:45 PM 35.6 °F 27.1 °F 32.0 °F 87% 30.13 in 3.0 mi NNW 12.7 mph - N/A   Overcast
8:58 PM 35.2 °F 28.1 °F 30.6 °F 83% 30.14 in 10.0 mi NW 9.2 mph - N/A   Overcast
9:39 PM 33.8 °F 25.8 °F 32.0 °F 93% 30.12 in 7.0 mi NNW 10.4 mph - N/A   Overcast
9:58 PM 34.3 °F 25.5 °F 30.9 °F 87% 30.16 in 7.0 mi NNW 12.7 mph - N/A   Overcast
10:36 PM 33.8 °F 25.8 °F 32.0 °F 93% 30.14 in 6.0 mi North 10.4 mph - N/A   Overcast
10:38 PM 33.8 °F 25.3 °F 32.0 °F 93% 30.14 in 6.0 mi North 11.5 mph - N/A   Overcast
10:48 PM 32.0 °F 24.8 °F 32.0 °F 100% 30.14 in 5.0 mi NNW 8.1 mph - N/A   Overcast
10:58 PM 33.6 °F 26.2 °F 31.3 °F 91% 30.18 in 4.0 mi North 9.2 mph - N/A   Overcast
11:08 PM 32.0 °F 23.6 °F 32.0 °F 100% 30.15 in 2.0 mi NNW 10.4 mph - N/A   Light Drizzle
11:20 PM 32.0 °F 24.2 °F 32.0 °F 100% 30.16 in 5.0 mi NNW 9.2 mph - N/A   Overcast
11:48 PM 32.0 °F 24.2 °F 32.0 °F 100% 30.16 in 5.0 mi NNW 9.2 mph - N/A   Overcast
11:56 PM 32.0 °F 24.8 °F 32.0 °F 100% 30.16 in 4.0 mi North 8.1 mph - N/A   Light Drizzle
11:58 PM 32.9 °F 25.3 °F 30.6 °F 91% 30.19 in 4.0 mi North 9.2 mph - N/A   Light Drizzle